[Iaude] MPEC A86: 2024 AW1 [a=1.86,e=0.41,i=4.5,H=24.5]
    mpec at marsden.cfa.harvard.edu 
    mpec at marsden.cfa.harvard.edu
       
    Tue Jan  9 01:47:54 EST 2024
    
    
  
M.P.E.C. 2024-A86                               Issued 2024 January 9, 06:46 UT
     The Minor Planet Electronic Circulars contain information on unusual
         minor planets, routine data on comets and natural satellites,
         and occasional editorial announcements.  They are published
    on behalf of Division F of the International Astronomical Union by the
          Minor Planet Center, Smithsonian Astrophysical Observatory,
                          Cambridge, MA 02138, U.S.A.
			  
             Prepared using the Tamkin Foundation Computer Network
                              MPC at CFA.HARVARD.EDU
            URL https://www.minorplanetcenter.net/    ISSN 1523-6714
                                    2024 AW1                                    
Observations:
     K24A01W* C2024 01 07.52366608 11 12.175+07 39 03.42         21.52wXEA086F51
     K24A01W  C2024 01 07.53511008 11 14.287+07 39 10.02         21.87wXEA086F51
     K24A01W  C2024 01 07.54647808 11 16.404+07 39 16.45         21.46wXEA086F51
     K24A01W  C2024 01 07.55786208 11 18.535+07 39 22.89         21.52wXEA086F51
     K24A01W  C2024 01 07.64672808 11 35.584+07 40 12.44         21.31GVEA086F52
     K24A01W  C2024 01 07.64754508 11 35.729+07 40 12.78         21.49GVEA086F52
     K24A01W |C2024 01 09.18431008 17 05.640+07 57 12.80         21.6 GVEA086807
     K24A01W |C2024 01 09.19339008 17 07.390+07 57 19.10         21.3 GVEA086807
     K24A01W |C2024 01 09.20214008 17 09.110+07 57 25.20         21.6 GVEA086807
     K24A01W mC2024 01 09.26530708 17 23.665+07 57 06.01         21.65GVEA086V06
     K24A01W mC2024 01 09.26636908 17 23.860+07 57 06.77         20.96GVEA086V06
     K24A01W mC2024 01 09.26690108 17 23.978+07 57 07.06               VEA086V06
Observer details:
807 Cerro Tololo Observatory, La Serena.  Observers T. Linder, R. Holmes.
    0.61-m f/11 Ritchey-Chretien + CCD.
F51 Pan-STARRS 1, Haleakala.  Observers J. Herman, T. Lowe, P. Minguez, A.
    Schultz, I. Smith.  Measurers K. Chambers, T. de Boer, J. Fairlamb, H.
    Gao, M. Huber, C.-C. Lin, E. Magnier, Y. Ramanjooloo, R. Wainscoat, R.
    Weryk.  1.8-m Ritchey-Chretien + CCD.
F52 Pan-STARRS 2, Haleakala.  Observers J. Herman, T. Lowe, P. Minguez, A.
    Schultz, I. Smith.  Measurers K. Chambers, T. de Boer, J. Fairlamb, H.
    Gao, M. Huber, C.-C. Lin, E. Magnier, Y. Ramanjooloo, R. Wainscoat, R.
    Weryk.  1.8-m Ritchey-Chretien + CCD.
V06 Catalina Sky Survey-Kuiper.  Observer K. W. Wierzchos.  Measurers E. C.
    Beshore, D. Fay, J. B. Fazekas, D. C. Fuls, A. R. Gibbs, A. D. Grauer, H.
    Groeller, J. K. Hogan, R. A. Kowalski, S. M. Larson, G. J. Leonard, D.
    Rankin, R. L. Seaman, F. C. Shelly, K. W. Wierzchos.  1.55-m reflector +
    1K CCD.
Orbital elements:
2024 AW1                                                 Earth MOID = 0.1166 AU
Epoch 2023 Sept. 13.0 TT = JDT 2460200.5                MPC                     
M 306.05524              (2000.0)            P               Q                  
n   0.38823262     Peri.    0.99923     -0.65357289     -0.75447577             
a   1.8609785      Node   129.81540     +0.69386511     -0.62898487             
e   0.4071515      Incl.    4.48562     +0.30231389     -0.18746825             
P   2.54           H   24.58          G   0.15           U   9                  
Residuals in seconds of arc
240107 F51  0.2+  0.0     240107 F52  0.1+  0.0     240109 807  0.0   0.1+
240107 F51  0.1-  0.0     240107 F52  0.1-  0.1-    240109 V06  0.2+  0.0
240107 F51  0.1-  0.0     240109 807  0.1+  0.1-    240109 V06  0.0   0.0
240107 F51  0.1-  0.0     240109 807  0.2-  0.0     240109 V06  0.2+  0.1-
Ephemeris:
2024 AW1                 a,e,i = 1.86, 0.41, 4                   q = 1.1033
Date    TT    R. A. (2000) Decl.     Delta      r    Elong.  Phase     V
2023 12 10    06 58 17.7 +07 29 08   0.2658  1.2200   148.7    24.8    23.3
...
2023 12 25    07 31 08.6 +06 37 33   0.1967  1.1641   154.5    21.3    22.4
...
2024 01 02    07 53 17.6 +06 57 54   0.1686  1.1408   157.3    19.4    22.0
...
2024 01 08    08 12 52.4 +07 44 00   0.1517  1.1267   159.5    17.8    21.7
2024 01 09    08 16 24.6 +07 54 34   0.1492  1.1246   159.8    17.5    21.6
2024 01 10    08 20 01.7 +08 05 59   0.1468  1.1227   160.2    17.3    21.6
...
2024 01 16    08 43 25.7 +09 31 48   0.1348  1.1128   162.3    15.6    21.3
...
2024 01 24    09 18 37.8 +12 04 27   0.1248  1.1050   164.5    13.8    21.1
...
2024 02 08    10 26 48.7 +17 15 51   0.1249  1.1072   164.6    13.7    21.1
A. U. Tomatic                (C) Copyright 2024 MPC           M.P.E.C. 2024-A86
    
    
More information about the Iaude
mailing list